EW7678 Weather Reports


Display with metric or nautical units.
time (UTC)temp
F
wind
direction
speed
MPH
gust
MPH
rain 1hr
in
rain 24hr
in
rain mn
in
humidity
%
barometer
mb
20260906054557 52 131 0.0 0.0 0.00 0.00 0.00 94 1018.4
20260906053054 52 131 0.0 0.0 0.00 0.00 0.00 93 1018.4
20260906051556 52 131 0.0 0.0 0.00 0.00 0.00 93 1018.3
20260906050114 52 131 0.0 0.0 0.00 0.00 0.00 93 1018.2
20260906044555 52 131 0.0 0.0 0.00 0.00 0.00 93 1018.0
20260906043105 52 131 0.0 0.0 0.00 0.00 0.00 93 1017.9
20260906041552 52 131 0.0 0.0 0.00 0.00 0.00 92 1017.8
20260906040052 52 131 0.0 0.0 0.00 0.00 0.00 91 1017.5
20260906034551 53 131 0.0 0.0 0.00 0.00 0.00 91 1017.4
20260906033051 54 131 0.0 0.0 0.00 0.00 0.00 90 1017.3
20260906031552 55 131 0.0 0.0 0.00 0.00 0.00 88 1017.1
20260906030100 56 131 0.0 0.0 0.00 0.00 0.00 87 1016.9
20260906024649 57 131 0.0 0.0 0.00 0.00 0.00 85 1016.8
20260906023052 58 131 0.0 0.0 0.00 0.00 0.00 84 1016.7
20260906021606 60 131 0.0 0.0 0.00 0.00 0.00 78 1016.6
20260906020047 62 130 0.0 0.0 0.00 0.00 0.00 73 1016.4
20260906014546 65 130 0.0 0.0 0.00 0.00 0.00 68 1016.3
20260906013046 67 130 0.0 0.0 0.00 0.00 0.00 60 1016.3
20260906011546 67 133 0.0 1.0 0.00 0.00 0.00 59 1016.2
20260906010045 68 141 0.0 1.0 0.00 0.00 0.00 58 1016.0
20260906004543 70 140 0.0 1.0 0.00 0.00 0.00 53 1016.1
20260906003036 70 144 0.0 1.0 0.00 0.00 0.00 50 1016.0
20260906001535 71 285 0.0 1.0 0.00 0.00 0.00 52 1016.1
20260906000034 71 98 0.0 1.0 0.00 0.00 0.00 51 1016.1
20260905234533 71 91 0.0 1.0 0.00 0.00 0.00 53 1016.2
20260905233032 71 257 0.0 1.0 0.00 0.00 0.00 51 1016.2
20260905231532 71 57 0.0 1.0 0.00 0.00 0.00 51 1016.3
20260905230030 71 248 0.0 2.0 0.00 0.00 0.00 50 1016.4
20260905224527 71 290 0.0 3.0 0.00 0.00 0.00 50 1016.6
20260905223026 72 75 0.0 2.0 0.00 0.00 0.00 52 1016.7
20260905221523 72 67 0.0 2.0 0.00 0.00 0.00 53 1017.0
20260905220027 72 129 0.0 2.0 0.00 0.00 0.00 53 1017.2
20260905214519 72 303 0.0 6.0 0.00 0.00 0.00 57 1017.3
20260905213015 71 340 0.0 2.0 0.00 0.00 0.00 54 1017.4
20260905211511 69 88 0.0 3.0 0.00 0.00 0.00 57 1017.6
20260905210009 69 315 0.0 1.0 0.00 0.00 0.00 56 1017.8
20260905204510 69 286 0.0 2.0 0.00 0.00 0.00 61 1017.9
20260905203005 68 307 0.0 2.0 0.00 0.00 0.00 60 1018.1
20260905201501 67 86 0.0 3.0 0.00 0.00 0.00 64 1018.3
20260905200101 66 115 0.0 3.0 0.00 0.00 0.00 65 1018.3
20260905194559 65 295 1.0 3.0 0.00 0.00 0.00 63 1018.6
20260905193053 65 304 0.0 2.0 0.00 0.00 0.00 65 1018.8
20260905191551 63 276 0.0 2.0 0.00 0.00 0.00 68 1019.1
20260905190049 64 117 0.0 2.0 0.00 0.00 0.00 67 1019.1
20260905184601 62 280 0.0 1.0 0.00 0.00 0.00 72 1019.3
20260905183043 61 282 0.0 1.0 0.00 0.00 0.00 76 1019.4
20260905181540 61 110 0.0 1.0 0.00 0.00 0.00 77 1019.5
20260905180038 60 289 0.0 1.0 0.00 0.00 0.00 73 1019.6
20260905174541 60 118 0.0 1.0 0.00 0.00 0.00 76 1019.8
20260905173032 60 120 0.0 0.0 0.00 0.00 0.00 79 1019.9
20260905171528 58 120 0.0 0.0 0.00 0.00 0.00 83 1019.8
20260905170024 57 120 0.0 1.0 0.00 0.00 0.00 87 1019.9
20260905164520 56 86 0.0 1.0 0.00 0.00 0.00 92 1019.9
20260905163016 55 122 0.0 1.0 0.00 0.00 0.00 95 1019.8
20260905161514 54 122 0.0 1.0 0.00 0.00 0.00 97 1019.9
20260905160026 54 304 0.0 0.0 0.00 0.00 0.00 97 1019.9
20260905154510 53 304 0.0 0.0 0.00 0.00 0.00 97 1019.9
20260905153011 53 46 0.0 0.0 0.00 0.00 0.00 98 1020.0
20260905151507 53 46 0.0 0.0 0.00 0.00 0.00 98 1019.9
20260905150006 52 46 0.0 0.0 0.00 0.00 0.00 98 1019.9
20260905144506 51 47 0.0 0.0 0.00 0.00 0.00 98 1019.8
20260905143059 51 47 0.0 0.0 0.00 0.00 0.00 97 1019.8
20260905141612 51 46 0.0 0.0 0.00 0.00 0.00 98 1019.6
20260905140155 50 46 0.0 0.0 0.00 0.00 0.00 97 1019.4
20260905134605 49 47 0.0 0.0 0.00 0.00 0.00 97 1019.3
20260905133055 49 46 0.0 0.0 0.00 0.00 0.00 97 1019.4
20260905131554 49 46 0.0 0.0 0.00 0.00 0.00 97 1019.5
20260905130047 48 46 0.0 0.0 0.00 0.00 0.00 97 1019.3
20260905124543 48 46 0.0 0.0 0.00 0.00 0.00 97 1019.3
20260905123041 48 46 0.0 0.0 0.00 0.00 0.00 97 1019.1
20260905121540 48 46 0.0 0.0 0.00 0.00 0.00 97 1019.1
20260905120040 49 46 0.0 0.0 0.00 0.00 0.00 97 1019.0
20260905114606 50 46 0.0 0.0 0.00 0.00 0.00 97 1018.9
20260905113037 50 46 0.0 0.0 0.00 0.00 0.00 97 1018.7
20260905111542 50 46 0.0 0.0 0.00 0.00 0.00 97 1018.6
20260905110035 50 46 0.0 0.0 0.00 0.00 0.00 97 1018.5
20260905104534 50 46 0.0 0.0 0.00 0.00 0.00 97 1018.5
20260905103035 49 46 0.0 0.0 0.00 0.00 0.00 97 1018.7
20260905101530 49 46 0.0 0.0 0.00 0.00 0.00 97 1018.7
20260905100030 49 46 0.0 0.0 0.00 0.00 0.00 97 1018.7
20260905094529 48 46 0.0 0.0 0.00 0.00 0.00 97 1018.6
20260905093030 48 46 0.0 0.0 0.00 0.00 0.00 97 1018.7
20260905091527 48 46 0.0 0.0 0.00 0.00 0.00 97 1018.8
20260905090026 47 46 0.0 0.0 0.00 0.00 0.00 97 1018.8
20260905084524 47 46 0.0 0.0 0.00 0.00 0.00 97 1018.8
20260905083022 47 46 0.0 0.0 0.00 0.00 0.00 97 1018.7
20260905081521 47 46 0.0 0.0 0.00 0.00 0.00 97 1018.5
20260905080022 47 46 0.0 0.0 0.00 0.00 0.00 97 1018.4
20260905074518 48 46 0.0 0.0 0.00 0.00 0.00 96 1018.3
20260905073015 48 46 0.0 0.0 0.00 0.00 0.00 97 1018.3
20260905071510 49 46 0.0 0.0 0.00 0.00 0.00 96 1018.2
20260905070006 49 46 0.0 0.0 0.00 0.00 0.00 96 1018.0
20260905064506 50 47 0.0 0.0 0.00 0.00 0.00 96 1018.1
20260905063005 51 46 0.0 0.0 0.00 0.00 0.00 96 1018.0
20260905061504 51 46 0.0 0.0 0.00 0.00 0.00 96 1017.9